[[{"header":{"parameterUnit":"m.s-1","parameterCategory":1,"la1":30.2991,"la2":30.254,"lo1":-89.0895,"lo2":-89.0444,"dy":0.0017,"dx":0.0017,"nx":28,"ny":28,"refTime":"2024-06-28T09:00:00:Z","depth":0,"parameterNumber":2,"parameterNumberName":"U-component_of_WINDS"},"data":[0,0,0,0,0,0,0,0,0,0,0,0,0,0,0,0,0,0,0,0,0,0,0,0,0,0,0,0,0,0,0,0,0,0,0,0,0,0,0,0,0,0,0,0,0,0,0,0,0,0,0,0,0,0,0,0,0,0,2.4511,2.4512,0,2.4646,2.4647,2.4649,2.4665,2.4664,2.4662,2.4661,2.4803,2.4808,2.4813,0,0,0,0,0,0,0,0,0,0,0,0,0,2.4268,2.4273,2.4511,2.4512,2.4514,2.4645,2.4647,2.4649,2.4665,2.4664,2.4662,2.4661,2.4801,2.4807,2.4813,0,0,0,0,0,0,0,0,0,0,0,0,0,2.4386,2.4274,2.451,2.4538,2.4542,2.4645,2.4647,2.465,2.4666,2.4664,2.4662,2.466,2.4799,2.4807,2.4814,2.49,0,0,2.4837,2.484,0,0,0,0,0,0,0,0,2.4379,2.4395,2.4532,2.4536,2.4541,2.4636,2.4614,2.4734,2.4666,2.4619,2.4661,2.4659,2.4749,2.4761,2.4791,2.4907,2.4913,2.4838,2.4842,2.4845,2.4848,0,0,0,0,0,0,0,2.4371,2.4389,2.4564,2.4534,2.4539,2.4544,2.4558,2.4637,2.4694,2.4623,2.4624,2.464,2.4751,2.4783,2.4794,2.4915,2.4837,2.4844,2.4849,2.4852,2.5107,2.5109,0,0,0,0,0,0,2.4357,2.4382,2.456,2.4568,2.4453,2.455,2.4566,2.4608,2.4693,2.4704,2.4641,2.464,2.4771,2.4785,2.4799,2.4904,2.4845,2.4852,2.4857,2.5105,2.5107,2.511,0,0,0,0,0,0,2.4352,2.4373,2.4555,2.4476,2.4499,2.4556,2.4603,2.4611,2.4644,2.4707,2.4717,2.4663,2.477,2.4789,2.4874,2.4909,2.4856,2.4863,2.5102,2.5105,2.5108,2.5116,0,0,0,0,0,0,2.4345,2.4371,2.4404,2.4476,2.4503,2.4627,2.4605,2.4616,2.4656,2.4656,2.473,2.4741,2.477,2.4863,2.4882,2.4919,2.4868,2.5099,2.5103,2.5107,2.5113,2.5119,2.5124,0,0,0,0,0,2.4336,2.4402,2.4406,2.4427,2.4546,2.4629,2.4644,2.4676,2.4659,2.4693,2.4733,2.4739,2.4902,2.4872,2.4893,2.4933,2.5097,2.5102,2.5107,2.511,2.5118,2.5124,0,0,0,0,0,0,2.4335,2.4412,2.4417,2.4508,2.4562,2.4631,2.4675,2.4683,2.4744,2.4741,2.4778,2.4795,2.4879,2.4915,2.4879,2.5019,2.4998,2.5008,2.4993,2.5001,2.5007,2.4996,2.4875,0,0,0,0,0,2.4345,2.4405,2.447,2.4544,2.457,2.4618,2.4656,2.4675,2.4732,2.4755,2.4802,2.4858,2.4922,2.4964,2.5026,2.5118,2.5134,2.5156,2.5161,2.5166,2.5174,2.5223,2.5232,2.5126,2.5126,2.5126,0,0,2.4367,2.4416,2.4453,2.4545,2.4589,2.465,2.4637,2.4704,2.475,2.4766,2.4849,2.4885,2.495,2.5038,2.508,2.5071,2.5206,2.5172,2.5175,2.5181,2.5229,2.5239,2.5248,2.513,2.5129,2.5129,0,0,2.4438,2.4482,2.4547,2.4591,2.4656,2.4687,2.4702,2.4771,2.4795,2.4878,2.4891,2.4946,2.5056,2.5101,2.5139,2.5224,2.5231,2.5243,2.5274,2.5321,2.533,2.5337,2.5366,2.5376,2.5251,2.5251,2.5251,0,2.4457,2.455,2.458,2.4645,2.4685,2.47,2.4766,2.4808,2.4891,2.4918,2.4906,2.5042,2.5088,2.5186,2.5206,2.5236,2.5255,2.5235,2.5326,2.5334,2.5341,2.5369,2.538,2.5252,2.5252,2.5252,2.5252,0,2.4569,2.4633,2.4678,2.4755,2.48,2.4866,2.4906,2.4948,2.4963,2.4995,2.5079,2.5133,2.5206,2.523,2.5247,2.533,2.5322,2.5318,2.5297,2.5352,2.5378,2.5389,2.5253,2.5253,2.5253,2.5253,0,0,2.4644,2.4735,2.4751,2.4786,2.4858,2.4908,2.4974,2.5043,2.5078,2.5134,2.519,2.5281,2.5276,2.5318,2.534,2.5381,2.5443,2.5372,2.5374,2.5382,2.5536,2.5538,2.555,2.5448,2.545,2.5452,2.553,0,2.4722,2.4838,2.4866,2.4966,2.5024,2.5039,2.5096,2.5146,2.5177,2.5232,2.5267,2.533,2.532,2.5346,2.5387,2.5426,2.5474,2.5421,2.5499,2.5502,2.5481,2.5564,2.5567,2.5638,2.5541,2.5543,2.5544,0,2.4829,2.4885,2.4989,2.5052,2.5077,2.5128,2.5192,2.5245,2.5302,2.5322,2.5367,2.5384,2.5452,2.5428,2.5522,2.5485,2.5519,2.5543,2.5546,2.5554,2.5525,2.5573,2.5662,2.5672,2.5561,2.556,2.5558,0,2.4871,2.4973,2.5048,2.5077,2.5152,2.5187,2.522,2.5275,2.5314,2.5371,2.5396,2.5461,2.5496,2.5546,2.5579,2.5558,2.567,2.5649,2.5688,2.5687,2.571,2.5708,2.5804,2.5734,2.5733,2.5733,2.5733,0,2.4954,2.5017,2.5067,2.5113,2.5184,2.5216,2.5285,2.5318,2.5367,2.5419,2.5437,2.5486,2.5527,2.5582,2.5609,2.5682,2.5698,2.5715,2.5722,2.5713,2.5711,2.5735,2.5731,2.5736,2.5736,2.5735,2.5734,0,2.5013,2.5049,2.5131,2.5195,2.5212,2.5261,2.5315,2.536,2.5391,2.5458,2.5475,2.5524,2.5589,2.5627,2.571,2.5728,2.5808,2.5813,2.5788,2.5791,2.5827,2.5822,2.5941,2.5958,2.5877,2.5878,2.5878,0,2.5063,2.5111,2.5179,2.5215,2.5248,2.5306,2.5345,2.5378,2.5418,2.5485,2.5522,2.5587,2.5642,2.5745,2.5788,2.5851,2.5857,2.5894,2.5866,2.5855,2.5855,2.5851,2.5855,2.5898,2.5899,2.59,2.59,0,2.5148,2.5163,2.5218,2.5279,2.5324,2.5375,2.5424,2.5453,2.5494,2.5538,2.5604,2.5646,2.5729,2.5793,2.5859,2.5894,2.5904,2.5908,2.592,2.5912,2.5895,2.5903,2.5799,2.5906,2.5905,2.5905,2.5904,2.5904,2.5203,2.5246,2.5299,2.5359,2.54,2.5445,2.549,2.5525,2.558,2.5649,2.5666,2.5734,2.5789,2.5878,2.5914,2.5968,2.5961,2.5979,2.5984,2.5987,2.5987,2.5887,2.598,2.598,2.598,2.598,2.598,0,2.5287,2.5322,2.5377,2.5444,2.5491,2.5495,2.555,2.5589,2.5649,2.5698,2.575,2.5825,2.5887,2.5934,2.5997,2.6032,2.6038,2.6047,2.6044,2.6052,2.599,2.5973,2.6041,2.6041,2.6041,2.6041,2.6041,2.6041,2.5336,2.5408,2.5429,2.552,2.5554,2.562,2.5651,2.5693,2.5732,2.5814,2.5865,2.5894,2.5942,2.6009,2.6066,2.6078,2.61,2.6109,2.6122,2.6063,2.6056,2.605,2.6034,2.6114,2.6114,2.6178,2.6179,2.6179]},{"header":{"parameterUnit":"m.s-1","parameterCategory":1,"la1":30.2991,"la2":30.254,"lo1":-89.0895,"lo2":-89.0444,"dy":0.0017,"dx":0.0017,"nx":28,"ny":28,"refTime":"2024-06-28T09:00:00:Z","depth":0,"parameterNumber":3,"parameterNumberName":"V-component_of_WINDS"},"data":[0,0,0,0,0,0,0,0,0,0,0,0,0,0,0,0,0,0,0,0,0,0,0,0,0,0,0,0,0,0,0,0,0,0,0,0,0,0,0,0,0,0,0,0,0,0,0,0,0,0,0,0,0,0,0,0,0,0,3.9365,3.9365,0,3.9408,3.9408,3.9409,3.9433,3.9433,3.9433,3.9433,3.9474,3.9475,3.9476,0,0,0,0,0,0,0,0,0,0,0,0,0,3.9299,3.93,3.9365,3.9365,3.9366,3.9408,3.9408,3.9409,3.9433,3.9433,3.9433,3.9434,3.9473,3.9475,3.9476,0,0,0,0,0,0,0,0,0,0,0,0,0,3.9333,3.9301,3.9365,3.9383,3.9385,3.9408,3.9408,3.9409,3.9433,3.9433,3.9433,3.9434,3.9473,3.9474,3.9476,3.9482,0,0,3.948,3.9481,0,0,0,0,0,0,0,0,3.9331,3.9336,3.938,3.9382,3.9384,3.9415,3.94,3.9433,3.9433,3.9415,3.9433,3.9434,3.9454,3.9457,3.9465,3.9484,3.9486,3.9481,3.9481,3.9482,3.9483,0,0,0,0,0,0,0,3.9329,3.9334,3.9382,3.938,3.9383,3.9388,3.9393,3.9406,3.9433,3.9416,3.9418,3.9423,3.9455,3.9463,3.9466,3.9486,3.9481,3.9482,3.9483,3.9483,3.9512,3.9512,0,0,0,0,0,0,3.9324,3.9332,3.938,3.9383,3.9358,3.9389,3.9394,3.9405,3.9433,3.9437,3.9423,3.9424,3.9461,3.9464,3.9467,3.9476,3.9482,3.9483,3.9484,3.9512,3.9512,3.9512,0,0,0,0,0,0,3.9323,3.9328,3.9379,3.9358,3.9365,3.939,3.9402,3.9406,3.9414,3.9438,3.9442,3.9427,3.9461,3.9465,3.9478,3.9478,3.9484,3.9485,3.9512,3.9512,3.9512,3.9494,0,0,0,0,0,0,3.9321,3.9328,3.9332,3.9358,3.9366,3.939,3.9402,3.9407,3.9417,3.9419,3.9443,3.9447,3.9461,3.9476,3.948,3.948,3.9487,3.9512,3.9512,3.9512,3.9495,3.9493,3.9492,0,0,0,0,0,3.9318,3.9324,3.9332,3.9337,3.9371,3.939,3.9395,3.9413,3.9417,3.942,3.9435,3.9446,3.9477,3.9477,3.9482,3.9482,3.9513,3.9512,3.9512,3.9495,3.9494,3.9492,0,0,0,0,0,0,3.9296,3.9328,3.9337,3.9351,3.9368,3.9394,3.9399,3.941,3.9425,3.9426,3.9446,3.9451,3.9462,3.9473,3.9473,3.9489,3.9496,3.9497,3.9482,3.948,3.9479,3.9476,3.9488,0,0,0,0,0,3.9293,3.9307,3.9334,3.9344,3.9352,3.9374,3.9383,3.9395,3.9413,3.942,3.9436,3.9451,3.9465,3.9473,3.9487,3.9496,3.9501,3.9499,3.9497,3.9496,3.9496,3.9501,3.95,3.9511,3.9511,3.9511,0,0,3.9286,3.9305,3.9313,3.934,3.9354,3.9367,3.938,3.9393,3.9402,3.9421,3.9435,3.9447,3.9466,3.9477,3.9483,3.9487,3.9494,3.9496,3.9495,3.9496,3.9501,3.95,3.9499,3.9511,3.9511,3.9511,0,0,3.9281,3.9297,3.9308,3.9322,3.9344,3.9358,3.936,3.9385,3.9394,3.9409,3.9423,3.9433,3.9456,3.9469,3.9478,3.9476,3.9486,3.948,3.9472,3.9477,3.9476,3.9476,3.9475,3.9474,3.948,3.948,3.948,0,3.927,3.9291,3.9311,3.9324,3.9334,3.9353,3.9363,3.9375,3.9399,3.9406,3.941,3.9439,3.9452,3.9467,3.9466,3.9473,3.9475,3.9477,3.9475,3.9475,3.9474,3.9473,3.9473,3.9479,3.9479,3.9479,3.9479,0,3.9276,3.929,3.9296,3.932,3.9331,3.9342,3.9362,3.9371,3.9382,3.9395,3.9409,3.9426,3.9443,3.9447,3.9458,3.9463,3.9464,3.9472,3.9479,3.9472,3.9472,3.9471,3.9478,3.9478,3.9478,3.9479,0,0,3.9259,3.9294,3.9295,3.9306,3.9331,3.9342,3.9353,3.9371,3.9377,3.9393,3.9402,3.9421,3.9427,3.9438,3.9449,3.9454,3.945,3.946,3.9461,3.9458,3.9456,3.945,3.945,3.9457,3.9457,3.9457,3.9454,0,3.9257,3.9279,3.9297,3.9312,3.9325,3.9342,3.9351,3.9367,3.9379,3.9391,3.9404,3.9417,3.9425,3.9431,3.9436,3.945,3.945,3.945,3.9464,3.9465,3.9459,3.945,3.9444,3.9441,3.9454,3.9454,3.9454,0,3.9258,3.9275,3.9291,3.9314,3.932,3.9328,3.9346,3.9357,3.9374,3.9383,3.9394,3.9406,3.9417,3.9423,3.9437,3.9437,3.9443,3.9451,3.9451,3.9453,3.9459,3.9451,3.944,3.9439,3.9454,3.9454,3.9454,0,3.9244,3.9269,3.9283,3.9291,3.9319,3.9324,3.9335,3.9353,3.9362,3.9376,3.9382,3.9397,3.9405,3.9416,3.9431,3.9434,3.9444,3.9451,3.945,3.945,3.9452,3.9452,3.9442,3.9456,3.9456,3.9456,3.9456,0,3.924,3.9249,3.9276,3.9284,3.9295,3.9314,3.9323,3.9336,3.9351,3.9361,3.9376,3.9384,3.9404,3.9414,3.9426,3.9436,3.9439,3.9446,3.9449,3.9445,3.9444,3.9449,3.945,3.9456,3.9456,3.9456,3.9456,0,3.9226,3.9244,3.926,3.9284,3.929,3.9297,3.9317,3.9325,3.9338,3.935,3.9354,3.9374,3.9387,3.9403,3.9421,3.9429,3.9437,3.9441,3.9431,3.9433,3.9432,3.9431,3.9425,3.9425,3.9439,3.9439,3.9439,0,3.9222,3.923,3.9255,3.9263,3.9275,3.9287,3.9297,3.9316,3.9325,3.9344,3.9349,3.9364,3.9376,3.9395,3.9411,3.9424,3.9429,3.9426,3.9431,3.9426,3.9429,3.9428,3.9428,3.9424,3.9424,3.9424,3.9424,0,3.9214,3.9223,3.9237,3.9254,3.9265,3.9279,3.9293,3.9299,3.932,3.9329,3.9343,3.9353,3.9371,3.9384,3.94,3.941,3.942,3.9422,3.9423,3.9418,3.9412,3.9415,3.9428,3.9422,3.9422,3.9422,3.9423,3.9423,3.9205,3.9212,3.9231,3.9246,3.9259,3.9272,3.928,3.9294,3.9307,3.9324,3.9334,3.9347,3.9362,3.9384,3.9394,3.9403,3.9407,3.9408,3.9408,3.9408,3.9407,3.941,3.9406,3.9406,3.9406,3.9406,3.9406,0,3.9197,3.921,3.9224,3.9244,3.9255,3.9264,3.9281,3.9289,3.9301,3.9315,3.9327,3.9342,3.9355,3.9371,3.9385,3.939,3.9394,3.9392,3.9392,3.9394,3.9402,3.9401,3.9388,3.9388,3.9388,3.9388,3.9388,3.9388,3.9195,3.9208,3.9218,3.9237,3.9249,3.9263,3.9272,3.9283,3.9295,3.9311,3.9323,3.9333,3.9348,3.9363,3.9374,3.9379,3.9383,3.9379,3.9385,3.9392,3.9394,3.9395,3.9394,3.938,3.938,3.9376,3.9376,3.9376]}]]